BOX6360 EDDF-LEMD

Flight info

Callsign BOX6360
Flight time 1h 50m
Altitude 35000
Route ANEKI2L/18 ANEKI Y163 HERBI/N0469F350 Y164 MOPAN DCT LUTIX DCT BENOT DCT NEMOS DCT NINTU DCT MEBAK DCT REPSI DCT LERGA DCT MINSO DCT NARAK DCT AGN DCT MAQAB DCT TIVLI DCT ELSAP DCT ZAR DCT KONKE DCT TERSA TERSA3Z
Aircraft B77L/H-SDE1E2E3FGHIJ2J3J4J5M1RWXY/LB1D1

Departure

Time 2026-04-14 14:23
Airport Frankfurt Main Airport (EDDF)

Arrival

Time 2026-04-14 16:14
Airport Adolfo Suárez Madrid–Barajas Airport (LEMD)
Time Latitude Longitude Altitude Speed Heading
2026-04-14 13:36 50.03812 8.53499 348 ft 0 kts 340°
2026-04-14 14:16 50.03801 8.53505 359 ft 4 kts 340°
2026-04-14 14:16 50.03776 8.53520 348 ft 4 kts 339°
2026-04-14 14:16 50.03752 8.53533 357 ft 4 kts 349°
2026-04-14 14:17 50.03708 8.53509 350 ft 4 kts 67°
2026-04-14 14:17 50.03701 8.53469 348 ft 4 kts 79°
2026-04-14 14:17 50.03697 8.53442 349 ft 1 kts 70°
2026-04-14 14:20 50.03697 8.53443 346 ft 1 kts 70°
2026-04-14 14:20 50.03705 8.53495 349 ft 8 kts 89°
2026-04-14 14:20 50.03675 8.53560 346 ft 8 kts 155°
2026-04-14 14:21 50.03632 8.53525 352 ft 8 kts 244°
2026-04-14 14:21 50.03610 8.53441 353 ft 10 kts 249°
2026-04-14 14:21 50.03579 8.53310 354 ft 16 kts 250°
2026-04-14 14:21 50.03536 8.53121 352 ft 19 kts 250°
2026-04-14 14:22 50.03486 8.52928 344 ft 19 kts 248°
2026-04-14 14:22 50.03435 8.52736 339 ft 19 kts 249°
2026-04-14 14:22 50.03400 8.52610 338 ft 10 kts 227°
2026-04-14 14:22 50.03332 8.52596 339 ft 20 kts 181°
2026-04-14 14:23 50.02994 8.52597 338 ft 84 kts 180°
2026-04-14 14:23 50.02206 8.52604 339 ft 141 kts 180°
2026-04-14 14:23 50.01057 8.52619 411 ft 181 kts 179°
2026-04-14 14:23 49.99814 8.52658 1054 ft 177 kts 178°
2026-04-14 14:24 49.98560 8.52734 1624 ft 185 kts 178°
2026-04-14 14:24 49.97200 8.52825 1877 ft 210 kts 177°
2026-04-14 14:24 49.95657 8.52930 2378 ft 221 kts 179°
2026-04-14 14:24 49.94073 8.53037 2902 ft 235 kts 178°
2026-04-14 14:25 49.92442 8.53149 3601 ft 237 kts 177°
2026-04-14 14:25 49.90790 8.53268 4405 ft 238 kts 177°
2026-04-14 14:25 49.89129 8.53384 5117 ft 241 kts 178°
2026-04-14 14:25 49.87438 8.53496 5798 ft 244 kts 177°
2026-04-14 14:26 49.85733 8.53618 6511 ft 246 kts 177°
2026-04-14 14:26 49.84011 8.53736 7192 ft 248 kts 177°
2026-04-14 14:26 49.82278 8.53862 7837 ft 251 kts 177°
2026-04-14 14:26 49.80525 8.53985 8515 ft 253 kts 177°
2026-04-14 14:27 49.78754 8.54107 9164 ft 255 kts 177°
2026-04-14 14:27 49.76952 8.54130 9645 ft 268 kts 183°
2026-04-14 14:27 49.75023 8.53896 9977 ft 284 kts 186°
2026-04-14 14:27 49.73017 8.53589 10518 ft 295 kts 186°
2026-04-14 14:28 49.70889 8.53265 10739 ft 320 kts 186°
2026-04-14 14:28 49.68588 8.52922 10953 ft 345 kts 186°
2026-04-14 14:28 49.66130 8.52569 11402 ft 361 kts 186°
2026-04-14 14:28 49.63641 8.52224 12220 ft 366 kts 186°
2026-04-14 14:29 49.61065 8.51876 13218 ft 368 kts 186°
2026-04-14 14:29 49.58531 8.51537 14116 ft 373 kts 186°
2026-04-14 14:29 49.55917 8.51190 14926 ft 379 kts 186°
2026-04-14 14:29 49.53272 8.50840 15754 ft 383 kts 186°
2026-04-14 14:30 49.50599 8.50487 16571 ft 388 kts 186°
2026-04-14 14:30 49.47895 8.50131 17378 ft 392 kts 186°
2026-04-14 14:30 49.45172 8.49771 18136 ft 396 kts 186°
2026-04-14 14:30 49.42408 8.49406 18884 ft 400 kts 186°
2026-04-14 14:31 49.39613 8.49039 19622 ft 404 kts 186°
2026-04-14 14:31 49.36798 8.48669 20327 ft 408 kts 186°
2026-04-14 14:31 49.33992 8.48299 20988 ft 412 kts 186°
2026-04-14 14:31 49.31117 8.47921 21661 ft 416 kts 186°
2026-04-14 14:32 49.28212 8.47546 22310 ft 420 kts 186°
2026-04-14 14:32 49.25289 8.47176 22939 ft 424 kts 186°
2026-04-14 14:32 49.22331 8.46804 23560 ft 428 kts 186°
2026-04-14 14:32 49.19349 8.46429 24187 ft 431 kts 186°
2026-04-14 14:33 49.16342 8.46050 24788 ft 435 kts 186°
2026-04-14 14:33 49.13320 8.45670 25343 ft 438 kts 186°
2026-04-14 14:33 49.10264 8.45287 25868 ft 442 kts 186°
2026-04-14 14:33 49.07181 8.44876 26398 ft 446 kts 187°
2026-04-14 14:34 49.01069 8.43011 27433 ft 451 kts 194°
2026-04-14 14:34 48.98003 8.41893 27940 ft 454 kts 194°
2026-04-14 14:34 48.94921 8.40788 28413 ft 457 kts 194°
2026-04-14 14:35 48.91808 8.39690 28875 ft 461 kts 194°
2026-04-14 14:35 48.88672 8.38595 29330 ft 464 kts 194°
2026-04-14 14:35 48.85522 8.37500 29762 ft 466 kts 194°
2026-04-14 14:35 48.82351 8.36398 30138 ft 470 kts 194°
2026-04-14 14:36 48.79152 8.35288 30543 ft 472 kts 194°
2026-04-14 14:36 48.75956 8.34158 31028 ft 472 kts 194°
2026-04-14 14:36 48.72801 8.33011 31492 ft 471 kts 194°
2026-04-14 14:36 48.69610 8.31840 31921 ft 471 kts 194°
2026-04-14 14:37 48.66421 8.30673 32355 ft 472 kts 194°
2026-04-14 14:37 48.63232 8.29510 32776 ft 472 kts 194°
2026-04-14 14:37 48.60037 8.28349 33193 ft 472 kts 194°
2026-04-14 14:37 48.56839 8.27192 33596 ft 472 kts 194°
2026-04-14 14:38 48.53643 8.26039 33996 ft 472 kts 194°
2026-04-14 14:38 48.50451 8.24889 34371 ft 471 kts 194°
2026-04-14 14:38 48.47258 8.23735 34720 ft 472 kts 194°
2026-04-14 14:38 48.44067 8.22575 35074 ft 472 kts 194°
2026-04-14 14:39 48.40866 8.21406 35230 ft 476 kts 194°
2026-04-14 14:39 48.34445 8.19067 35209 ft 476 kts 194°
2026-04-14 14:40 48.28046 8.16747 35207 ft 471 kts 194°
2026-04-14 14:40 48.21848 8.13608 35201 ft 470 kts 206°
2026-04-14 14:41 48.15989 8.09217 35209 ft 471 kts 207°
2026-04-14 14:41 48.10124 8.04816 35206 ft 472 kts 207°
2026-04-14 14:42 48.05227 8.01187 35206 ft 472 kts 207°
2026-04-14 14:42 47.99326 7.96846 35203 ft 473 kts 206°
2026-04-14 14:43 47.92462 7.91818 35195 ft 472 kts 206°
2026-04-14 14:43 47.87521 7.88208 35200 ft 472 kts 206°
2026-04-14 14:44 47.81608 7.83893 35189 ft 473 kts 206°
2026-04-14 14:44 47.75705 7.79596 35187 ft 472 kts 206°
2026-04-14 14:45 47.69834 7.75335 35188 ft 473 kts 206°
2026-04-14 14:45 47.63917 7.71051 35183 ft 473 kts 206°
2026-04-14 14:46 47.57984 7.66766 35187 ft 474 kts 206°
2026-04-14 14:46 47.52043 7.62485 35182 ft 475 kts 206°
2026-04-14 14:47 47.46085 7.58202 35183 ft 476 kts 206°
2026-04-14 14:47 47.40118 7.53925 35188 ft 477 kts 206°
2026-04-14 14:48 47.34134 7.49647 35187 ft 478 kts 206°
2026-04-14 14:48 47.28139 7.45371 35182 ft 479 kts 206°
2026-04-14 14:49 47.22173 7.41127 35184 ft 480 kts 206°
2026-04-14 14:49 47.16502 7.35928 35195 ft 478 kts 221°
2026-04-14 14:50 47.11948 7.28947 35190 ft 477 kts 233°
2026-04-14 14:50 47.07909 7.21197 35185 ft 479 kts 233°
2026-04-14 14:51 47.03758 7.13534 35176 ft 480 kts 232°
2026-04-14 14:51 46.99557 7.05894 35165 ft 481 kts 232°
2026-04-14 14:52 46.95360 6.98260 35164 ft 481 kts 232°
2026-04-14 14:52 46.91166 6.90642 35156 ft 481 kts 232°
2026-04-14 14:53 46.86963 6.83037 35158 ft 480 kts 232°
2026-04-14 14:53 46.82785 6.75491 35156 ft 480 kts 232°
2026-04-14 14:54 46.78579 6.67913 35160 ft 480 kts 232°
2026-04-14 14:54 46.74362 6.60337 35153 ft 481 kts 232°
2026-04-14 14:55 46.70136 6.52762 35152 ft 481 kts 232°
2026-04-14 14:55 46.65901 6.45197 35156 ft 482 kts 232°
2026-04-14 14:56 46.59530 6.33850 35156 ft 483 kts 232°
2026-04-14 14:56 46.55302 6.26348 35159 ft 483 kts 232°
2026-04-14 14:57 46.51030 6.18789 35163 ft 484 kts 232°
2026-04-14 14:57 46.46750 6.11232 35153 ft 485 kts 232°
2026-04-14 14:58 46.42463 6.03689 35163 ft 485 kts 232°
2026-04-14 14:58 46.38163 5.96139 35160 ft 486 kts 232°
2026-04-14 14:59 46.33852 5.88591 35159 ft 486 kts 232°
2026-04-14 14:59 46.29531 5.81049 35157 ft 487 kts 232°
2026-04-14 15:00 46.25232 5.73564 35155 ft 487 kts 232°
2026-04-14 15:00 46.20906 5.66047 35163 ft 486 kts 232°
2026-04-14 15:01 46.16568 5.58530 35148 ft 487 kts 232°
2026-04-14 15:01 46.12462 5.50800 35155 ft 484 kts 237°
2026-04-14 15:02 46.08662 5.42795 35144 ft 484 kts 238°
2026-04-14 15:02 46.04849 5.34790 35158 ft 484 kts 238°
2026-04-14 15:03 46.01015 5.26816 35157 ft 485 kts 238°
2026-04-14 15:03 45.97164 5.18851 35155 ft 485 kts 237°
2026-04-14 15:04 45.93293 5.10871 35159 ft 487 kts 237°
2026-04-14 15:04 45.89434 5.02933 35159 ft 488 kts 238°
2026-04-14 15:05 45.85538 4.94940 35158 ft 490 kts 238°
2026-04-14 15:05 45.81620 4.86925 35159 ft 491 kts 238°
2026-04-14 15:06 45.77693 4.78914 35153 ft 492 kts 239°
2026-04-14 15:06 45.73744 4.70877 35156 ft 494 kts 239°
2026-04-14 15:07 45.69776 4.62826 35159 ft 495 kts 239°
2026-04-14 15:07 45.65826 4.54809 35161 ft 496 kts 239°
2026-04-14 15:08 45.61839 4.46732 35156 ft 497 kts 239°
2026-04-14 15:08 45.57846 4.38666 35161 ft 498 kts 239°
2026-04-14 15:09 45.53841 4.30599 35158 ft 498 kts 239°
2026-04-14 15:09 45.49817 4.22543 35157 ft 499 kts 239°
2026-04-14 15:10 45.45766 4.14514 35156 ft 498 kts 239°
2026-04-14 15:10 45.41718 4.06507 35152 ft 498 kts 239°
2026-04-14 15:11 45.37669 3.98510 35155 ft 498 kts 239°
2026-04-14 15:11 45.33629 3.90559 35153 ft 498 kts 239°
2026-04-14 15:12 45.29567 3.82578 35160 ft 498 kts 239°
2026-04-14 15:12 45.25489 3.74588 35154 ft 500 kts 239°
2026-04-14 15:13 45.21480 3.66526 35160 ft 500 kts 240°
2026-04-14 15:13 45.17504 3.58408 35161 ft 501 kts 240°
2026-04-14 15:14 45.13517 3.50312 35158 ft 502 kts 240°
2026-04-14 15:14 45.09509 3.42223 35153 ft 502 kts 240°
2026-04-14 15:15 45.05514 3.34196 35161 ft 502 kts 240°
2026-04-14 15:15 45.01490 3.26130 35148 ft 502 kts 240°
2026-04-14 15:16 44.97464 3.18081 35157 ft 501 kts 240°
2026-04-14 15:16 44.93433 3.10046 35154 ft 502 kts 240°
2026-04-14 15:17 44.89399 3.02021 35157 ft 501 kts 240°
2026-04-14 15:17 44.85348 2.93989 35156 ft 502 kts 240°
2026-04-14 15:18 44.81428 2.85870 35149 ft 501 kts 243°
2026-04-14 15:18 44.77681 2.77598 35141 ft 500 kts 244°
2026-04-14 15:19 44.73927 2.69350 35152 ft 501 kts 243°
2026-04-14 15:19 44.70155 2.61173 35151 ft 502 kts 243°
2026-04-14 15:20 44.66328 2.52947 35136 ft 503 kts 243°
2026-04-14 15:20 44.62484 2.44709 35135 ft 505 kts 243°
2026-04-14 15:21 44.58634 2.36477 35154 ft 505 kts 243°
2026-04-14 15:21 44.54769 2.28232 35143 ft 506 kts 243°
2026-04-14 15:22 44.50893 2.19990 35134 ft 507 kts 243°
2026-04-14 15:22 44.47013 2.11762 35147 ft 506 kts 243°
2026-04-14 15:23 44.43123 2.03538 35132 ft 507 kts 243°
2026-04-14 15:23 44.39253 1.95370 35139 ft 507 kts 243°
2026-04-14 15:24 44.35344 1.87153 35151 ft 507 kts 243°
2026-04-14 15:24 44.31438 1.78958 35148 ft 507 kts 243°
2026-04-14 15:25 44.27545 1.70744 35160 ft 507 kts 244°
2026-04-14 15:25 44.23752 1.62464 35161 ft 506 kts 244°
2026-04-14 15:26 44.19973 1.54189 35164 ft 506 kts 244°
2026-04-14 15:26 44.16172 1.45933 35171 ft 506 kts 244°
2026-04-14 15:27 44.12364 1.37701 35169 ft 506 kts 244°
2026-04-14 15:27 44.08544 1.29472 35176 ft 506 kts 244°
2026-04-14 15:28 44.04718 1.21259 35179 ft 506 kts 244°
2026-04-14 15:28 44.00908 1.13099 35177 ft 506 kts 244°
2026-04-14 15:29 43.97067 1.04887 35188 ft 507 kts 244°
2026-04-14 15:29 43.93217 0.96682 35184 ft 508 kts 244°
2026-04-14 15:30 43.89936 0.89901 35184 ft 512 kts 240°
2026-04-14 15:30 43.85104 0.82503 35183 ft 524 kts 227°
2026-04-14 15:31 43.79611 0.75839 35187 ft 526 kts 227°
2026-04-14 15:31 43.74094 0.69160 35184 ft 526 kts 227°
2026-04-14 15:32 43.68610 0.62445 35184 ft 526 kts 227°
2026-04-14 15:32 43.63134 0.55726 35182 ft 527 kts 228°
2026-04-14 15:33 43.57653 0.49021 35185 ft 526 kts 227°
2026-04-14 15:33 43.52168 0.42329 35201 ft 526 kts 227°
2026-04-14 15:34 43.46678 0.35651 35203 ft 526 kts 227°
2026-04-14 15:34 43.41185 0.28984 35184 ft 526 kts 227°
2026-04-14 15:35 43.35722 0.22369 35184 ft 526 kts 227°
2026-04-14 15:35 43.30221 0.15716 35185 ft 527 kts 227°
2026-04-14 15:36 43.24718 0.09075 35186 ft 526 kts 227°
2026-04-14 15:36 43.19217 0.02452 35185 ft 526 kts 227°
2026-04-14 15:37 43.13708 -0.04165 35191 ft 524 kts 227°
2026-04-14 15:37 43.08302 -0.10629 35197 ft 510 kts 227°
2026-04-14 15:38 43.02998 -0.16969 35196 ft 510 kts 228°
2026-04-14 15:38 42.97653 -0.23350 35194 ft 511 kts 227°
2026-04-14 15:39 42.92292 -0.29728 35193 ft 513 kts 227°
2026-04-14 15:39 42.86904 -0.36124 35194 ft 514 kts 227°
2026-04-14 15:40 42.81259 -0.42200 35192 ft 524 kts 218°
2026-04-14 15:40 42.74768 -0.46888 35162 ft 534 kts 206°
2026-04-14 15:41 42.67809 -0.50480 35169 ft 536 kts 204°
2026-04-14 15:41 42.60820 -0.54043 35156 ft 536 kts 205°
2026-04-14 15:42 42.53861 -0.57659 35161 ft 535 kts 205°
2026-04-14 15:42 42.46918 -0.61287 35132 ft 535 kts 205°
2026-04-14 15:43 42.40012 -0.64892 35136 ft 534 kts 205°
2026-04-14 15:43 42.33067 -0.68502 35130 ft 535 kts 205°
2026-04-14 15:44 42.26122 -0.72100 35113 ft 534 kts 205°
2026-04-14 15:44 42.19176 -0.75696 35109 ft 534 kts 205°
2026-04-14 15:45 42.12241 -0.79275 35101 ft 535 kts 205°
2026-04-14 15:45 42.05280 -0.82859 35095 ft 535 kts 205°
2026-04-14 15:46 41.98326 -0.86434 35085 ft 535 kts 205°
2026-04-14 15:46 41.91396 -0.89997 35102 ft 537 kts 205°
2026-04-14 15:47 41.84407 -0.93585 35102 ft 538 kts 205°
2026-04-14 15:47 41.77386 -0.97186 35108 ft 540 kts 205°
2026-04-14 15:48 41.70384 -1.00839 35101 ft 539 kts 209°
2026-04-14 15:48 41.63944 -1.05758 35108 ft 530 kts 220°
2026-04-14 15:49 41.58302 -1.11948 35110 ft 521 kts 229°
2026-04-14 15:49 41.53000 -1.18457 35100 ft 521 kts 229°
2026-04-14 15:50 41.47639 -1.24971 35099 ft 521 kts 229°
2026-04-14 15:50 41.42243 -1.31450 35105 ft 521 kts 229°
2026-04-14 15:51 41.36844 -1.37899 35116 ft 521 kts 229°
2026-04-14 15:51 41.31440 -1.44349 34690 ft 527 kts 229°
2026-04-14 15:52 41.28688 -1.47635 33862 ft 533 kts 228°
2026-04-14 15:52 41.25915 -1.50935 33032 ft 534 kts 228°
2026-04-14 15:52 41.23142 -1.54228 32156 ft 534 kts 227°
2026-04-14 15:52 41.20403 -1.57477 31270 ft 535 kts 227°
2026-04-14 15:53 41.17625 -1.60770 30335 ft 536 kts 226°
2026-04-14 15:53 41.14853 -1.64050 29680 ft 531 kts 226°
2026-04-14 15:53 41.12109 -1.67294 29038 ft 525 kts 226°
2026-04-14 15:53 41.09397 -1.70499 28406 ft 519 kts 226°
2026-04-14 15:54 41.04048 -1.76812 27186 ft 509 kts 226°
2026-04-14 15:54 41.01408 -1.79922 26573 ft 505 kts 226°
2026-04-14 15:54 40.98794 -1.82999 25978 ft 500 kts 226°
2026-04-14 15:55 40.96200 -1.86049 25385 ft 496 kts 226°
2026-04-14 15:55 40.93628 -1.89071 24801 ft 492 kts 226°
2026-04-14 15:55 40.91085 -1.92059 24204 ft 488 kts 226°
2026-04-14 15:55 40.88554 -1.95029 23637 ft 484 kts 226°
2026-04-14 15:56 40.86047 -1.97968 23062 ft 480 kts 226°
2026-04-14 15:56 40.83554 -2.00888 22496 ft 476 kts 225°
2026-04-14 15:56 40.81091 -2.03772 21941 ft 471 kts 225°
2026-04-14 15:56 40.78649 -2.06623 21392 ft 467 kts 225°
2026-04-14 15:57 40.76258 -2.09480 20827 ft 455 kts 230°
2026-04-14 15:57 40.74496 -2.12769 20310 ft 438 kts 250°
2026-04-14 15:57 40.73585 -2.16513 19923 ft 421 kts 265°
2026-04-14 15:57 40.73287 -2.20267 19622 ft 404 kts 276°
2026-04-14 15:58 40.73596 -2.23883 19335 ft 396 kts 285°
2026-04-14 15:58 40.74094 -2.27491 19050 ft 403 kts 285°
2026-04-14 15:58 40.74579 -2.31149 18757 ft 405 kts 284°
2026-04-14 15:58 40.75034 -2.34810 18453 ft 404 kts 284°
2026-04-14 15:59 40.75472 -2.38472 18147 ft 402 kts 284°
2026-04-14 15:59 40.75895 -2.42107 17801 ft 398 kts 282°
2026-04-14 15:59 40.75782 -2.45788 17193 ft 413 kts 259°
2026-04-14 15:59 40.74649 -2.49296 16805 ft 420 kts 243°
2026-04-14 16:00 40.72881 -2.52360 16307 ft 421 kts 229°
2026-04-14 16:00 40.70819 -2.55088 15888 ft 417 kts 227°
2026-04-14 16:00 40.68756 -2.57740 15525 ft 411 kts 227°
2026-04-14 16:00 40.66718 -2.60349 15157 ft 406 kts 227°
2026-04-14 16:01 40.64705 -2.62940 14808 ft 402 kts 227°
2026-04-14 16:01 40.62725 -2.65509 14460 ft 398 kts 227°
2026-04-14 16:01 40.60766 -2.68062 14115 ft 395 kts 227°
2026-04-14 16:01 40.58842 -2.70580 13769 ft 395 kts 227°
2026-04-14 16:02 40.56890 -2.73138 13432 ft 396 kts 227°
2026-04-14 16:02 40.54938 -2.75698 13098 ft 396 kts 227°
2026-04-14 16:02 40.52986 -2.78253 12739 ft 395 kts 227°
2026-04-14 16:02 40.51043 -2.80793 12392 ft 393 kts 227°
2026-04-14 16:03 40.49109 -2.83317 12062 ft 391 kts 227°
2026-04-14 16:03 40.47194 -2.85818 11707 ft 385 kts 227°
2026-04-14 16:03 40.45317 -2.88272 11385 ft 377 kts 227°
2026-04-14 16:03 40.43478 -2.90675 11061 ft 369 kts 227°
2026-04-14 16:04 40.41676 -2.93021 10733 ft 360 kts 227°
2026-04-14 16:04 40.39920 -2.95305 10436 ft 351 kts 228°
2026-04-14 16:04 40.38200 -2.97546 10114 ft 345 kts 228°
2026-04-14 16:04 40.36520 -2.99732 9880 ft 334 kts 228°
2026-04-14 16:05 40.34916 -3.01810 9696 ft 311 kts 228°
2026-04-14 16:05 40.33417 -3.03756 9357 ft 299 kts 228°
2026-04-14 16:05 40.31960 -3.05635 9060 ft 288 kts 228°
2026-04-14 16:05 40.30550 -3.07461 8797 ft 281 kts 229°
2026-04-14 16:06 40.29155 -3.09278 8551 ft 285 kts 229°
2026-04-14 16:06 40.27748 -3.11106 8362 ft 283 kts 229°
2026-04-14 16:06 40.26541 -3.13050 8042 ft 267 kts 250°
2026-04-14 16:06 40.26133 -3.15318 7810 ft 249 kts 274°
2026-04-14 16:07 40.26297 -3.17482 7580 ft 239 kts 285°
2026-04-14 16:07 40.26596 -3.19636 7364 ft 237 kts 284°
2026-04-14 16:07 40.26877 -3.21735 7144 ft 238 kts 284°
2026-04-14 16:07 40.27165 -3.23871 6908 ft 239 kts 284°
2026-04-14 16:08 40.27452 -3.26013 6695 ft 239 kts 284°
2026-04-14 16:08 40.27737 -3.28162 6451 ft 240 kts 283°
2026-04-14 16:08 40.28019 -3.30314 6241 ft 239 kts 283°
2026-04-14 16:08 40.28304 -3.32454 5994 ft 238 kts 284°
2026-04-14 16:09 40.28775 -3.34488 5776 ft 230 kts 294°
2026-04-14 16:09 40.29361 -3.36421 5571 ft 226 kts 294°
2026-04-14 16:09 40.29950 -3.38328 5346 ft 221 kts 298°
2026-04-14 16:09 40.30885 -3.39802 5124 ft 208 kts 329°
2026-04-14 16:10 40.32173 -3.40645 4845 ft 206 kts 330°
2026-04-14 16:10 40.33326 -3.41721 4787 ft 201 kts 320°
2026-04-14 16:10 40.34359 -3.42973 4784 ft 204 kts 315°
2026-04-14 16:10 40.35346 -3.44272 4606 ft 196 kts 320°
2026-04-14 16:11 40.36367 -3.45277 4570 ft 174 kts 329°
2026-04-14 16:11 40.37355 -3.46153 4240 ft 169 kts 323°
2026-04-14 16:11 40.38251 -3.47095 3956 ft 163 kts 321°
2026-04-14 16:11 40.39123 -3.48058 3664 ft 164 kts 320°
2026-04-14 16:12 40.39995 -3.48999 3397 ft 158 kts 322°
2026-04-14 16:12 40.40822 -3.49847 3151 ft 148 kts 322°
2026-04-14 16:12 40.41623 -3.50686 2902 ft 148 kts 323°
2026-04-14 16:12 40.42436 -3.51512 2847 ft 147 kts 324°
2026-04-14 16:13 40.43269 -3.52331 2763 ft 152 kts 326°
2026-04-14 16:13 40.44114 -3.53179 2551 ft 154 kts 324°
2026-04-14 16:13 40.44962 -3.54019 2321 ft 150 kts 324°
2026-04-14 16:13 40.45780 -3.54861 2120 ft 149 kts 324°
2026-04-14 16:14 40.46601 -3.55686 1975 ft 145 kts 323°
2026-04-14 16:14 40.47295 -3.56388 1990 ft 98 kts 322°
2026-04-14 16:14 40.47662 -3.56761 2001 ft 48 kts 321°
2026-04-14 16:14 40.47782 -3.56993 2003 ft 20 kts 295°
2026-04-14 16:15 40.47775 -3.57111 2003 ft 14 kts 205°
2026-04-14 16:15 40.47687 -3.57055 1998 ft 15 kts 142°
2026-04-14 16:15 40.47600 -3.56963 1997 ft 17 kts 141°
2026-04-14 16:15 40.47536 -3.56900 1997 ft 17 kts 144°
2026-04-14 16:16 40.47441 -3.56804 1996 ft 17 kts 142°
2026-04-14 16:16 40.47345 -3.56706 1993 ft 18 kts 142°
2026-04-14 16:16 40.47242 -3.56601 1989 ft 20 kts 142°
2026-04-14 16:16 40.47124 -3.56496 1987 ft 21 kts 153°
2026-04-14 16:17 40.46985 -3.56451 1980 ft 21 kts 178°
2026-04-14 16:17 40.46842 -3.56461 1981 ft 21 kts 183°
2026-04-14 16:17 40.46698 -3.56472 1982 ft 21 kts 183°
2026-04-14 16:17 40.46555 -3.56482 1981 ft 21 kts 183°
2026-04-14 16:18 40.46411 -3.56494 1978 ft 21 kts 184°
2026-04-14 16:18 40.46269 -3.56506 1977 ft 21 kts 184°
2026-04-14 16:18 40.46125 -3.56515 1976 ft 21 kts 182°
2026-04-14 16:18 40.46000 -3.56525 1976 ft 9 kts 184°
2026-04-14 16:19 40.45957 -3.56479 1978 ft 9 kts 95°
2026-04-14 16:19 40.45958 -3.56393 1977 ft 9 kts 89°
2026-04-14 16:19 40.45958 -3.56307 1974 ft 10 kts 89°
2026-04-14 16:19 40.45959 -3.56204 1966 ft 13 kts 90°
2026-04-14 16:20 40.45959 -3.56078 1963 ft 14 kts 89°
2026-04-14 16:20 40.45961 -3.55964 1960 ft 12 kts 89°
2026-04-14 16:20 40.45962 -3.55863 1957 ft 7 kts 88°
2026-04-14 16:20 40.45991 -3.55828 1956 ft 5 kts 12°
2026-04-14 16:21 40.46022 -3.55825 1956 ft 4 kts
2026-04-14 16:21 40.46036 -3.55825 1956 ft 1 kts 359°
2026-04-14 16:21 40.46037 -3.55825 1956 ft 0 kts 359°